Location: Unspecified
(0.0000°N, 0.0000°E)
Time: 19:32:05
(UTC+02:00)

Ariane H10-3 - Visible Passes

Search period start: 25 July 2014 00:00
Search period end: 04 August 2014 00:00
Orbit: 247 x 22581 km, 7.2° (Epoch: 23 July)

Date Brightness Start Highest point End Pass type
(mag) Time Alt. Az. Time Alt. Az. Time Alt. Az.
25 Jul 4.1 06:44:55 20° NNW 06:46:17 30° NNE 06:52:22 10° ENE visible
26 Jul 7.9 01:55:10 10° W 02:00:42 16° W 02:00:42 16° W visible
26 Jul 7.2 16:09:54 10° W 21:18:52 83° S 21:41:29 23° E visible
27 Jul 6.4 19:27:43 10° W 23:55:45 78° W 23:55:45 78° W visible
28 Jul 4.2 06:54:19 17° NW 06:56:12 35° NNE 07:03:48 10° E visible
29 Jul 8.0 02:07:52 10° W 02:09:57 12° W 02:09:57 12° W visible
29 Jul 7.1 16:21:19 10° W 21:31:12 85° S 21:50:30 27° E visible
30 Jul 6.5 19:53:56 10° W 00:04:26 71° W 00:04:26 71° W visible
31 Jul 4.4 07:02:52 14° NW 07:05:13 41° NNE 07:14:29 10° E visible
01 Aug 6.9 16:31:56 10° W 21:42:01 86° S 21:58:38 30° E visible
02 Aug 6.6 20:29:06 10° W 00:12:15 64° WNW 00:12:15 64° WNW visible
03 Aug 4.4 07:10:33 12° WNW 07:13:20 46° NNE 07:24:23 10° E visible
